TimeMST,TemperatureF,Dew PointF,Humidity,Sea Level PressureIn,VisibilityMPH,Wind Direction,Wind SpeedMPH,Gust SpeedMPH,PrecipitationIn,Events,Conditions,WindDirDegrees,DateUTC
12:53 AM,10.9,8.1,88,30.14,10.0,SSW,3.5,-,N/A,,Scattered Clouds,210,2012-12-10 07:53:00
1:53 AM,10.0,6.1,84,30.11,10.0,South,3.5,-,N/A,,Partly Cloudy,190,2012-12-10 08:53:00
2:53 AM,10.0,7.0,87,30.10,10.0,SW,6.9,-,N/A,,Clear,220,2012-12-10 09:53:00
3:53 AM,8.1,5.0,87,30.11,10.0,South,3.5,-,N/A,,Scattered Clouds,170,2012-12-10 10:53:00
4:53 AM,9.0,5.0,84,30.11,10.0,Calm,Calm,-,N/A,,Mostly Cloudy,0,2012-12-10 11:53:00
5:53 AM,9.0,5.0,84,30.11,10.0,West,3.5,-,N/A,,Scattered Clouds,260,2012-12-10 12:53:00
6:53 AM,7.0,3.9,87,30.12,10.0,SSW,6.9,-,N/A,,Scattered Clouds,200,2012-12-10 13:53:00
7:53 AM,8.1,3.9,83,30.12,10.0,Calm,Calm,-,N/A,,Partly Cloudy,0,2012-12-10 14:53:00
8:53 AM,10.9,6.1,81,30.10,10.0,SW,4.6,-,N/A,,Scattered Clouds,220,2012-12-10 15:53:00
9:53 AM,12.9,7.0,77,30.10,10.0,Calm,Calm,-,N/A,,Overcast,0,2012-12-10 16:53:00
10:53 AM,16.0,8.1,71,30.12,10.0,Calm,Calm,-,N/A,,Overcast,0,2012-12-10 17:53:00
11:53 AM,18.0,10.0,71,30.11,10.0,Calm,Calm,-,N/A,,Overcast,0,2012-12-10 18:53:00
12:36 PM,19.4,10.4,68,29.93,2.0,Calm,Calm,-,0.00,Snow,Light Snow,0,2012-12-10 19:36:00
12:43 PM,19.4,12.2,74,29.93,1.0,SW,3.5,-,0.00,Snow,Light Snow,230,2012-12-10 19:43:00
12:53 PM,19.0,12.0,74,30.12,1.5,WSW,5.8,-,0.00,Snow,Light Snow,240,2012-12-10 19:53:00
1:26 PM,19.4,15.8,86,29.92,0.5,West,3.5,-,0.00,Fog-Snow,Light Snow,260,2012-12-10 20:26:00
1:53 PM,19.9,17.1,89,30.11,0.8,Calm,Calm,-,0.00,Snow,Light Snow,0,2012-12-10 20:53:00
2:05 PM,19.4,17.6,93,29.93,1.8,Calm,Calm,-,0.00,Snow,Light Snow,0,2012-12-10 21:05:00
2:13 PM,19.4,17.6,93,29.93,1.8,Calm,Calm,-,0.00,Snow,Light Snow,0,2012-12-10 21:13:00
2:33 PM,19.4,17.6,93,29.93,0.8,Calm,Calm,-,0.00,Snow,Light Snow,0,2012-12-10 21:33:00
2:51 PM,19.4,17.6,93,29.93,1.8,SSW,3.5,-,0.01,Snow,Light Snow,200,2012-12-10 21:51:00
2:53 PM,19.9,17.1,89,30.12,2.0,Calm,Calm,-,0.01,Snow,Light Snow,0,2012-12-10 21:53:00
3:02 PM,21.2,17.6,86,29.94,3.0,SSW,3.5,-,0.00,Snow,Light Snow,200,2012-12-10 22:02:00
3:53 PM,21.0,18.0,88,30.13,10.0,SW,5.8,-,0.00,,Overcast,220,2012-12-10 22:53:00
4:11 PM,19.4,17.6,93,29.95,10.0,SSW,3.5,-,N/A,,Mostly Cloudy,200,2012-12-10 23:11:00
4:53 PM,18.0,15.1,88,30.14,10.0,SSE,4.6,-,N/A,,Overcast,150,2012-12-10 23:53:00
6:53 PM,18.0,16.0,92,30.15,10.0,Calm,Calm,-,N/A,,Overcast,0,2012-12-11 01:53:00
7:53 PM,19.9,17.1,89,30.16,10.0,SE,3.5,-,N/A,,Overcast,130,2012-12-11 02:53:00
8:53 PM,19.0,17.1,92,30.15,10.0,Calm,Calm,-,N/A,,Overcast,0,2012-12-11 03:53:00
9:53 PM,18.0,16.0,92,30.14,10.0,Calm,Calm,-,N/A,,Overcast,0,2012-12-11 04:53:00
10:53 PM,19.9,17.1,89,30.13,10.0,Calm,Calm,-,N/A,,Overcast,0,2012-12-11 05:53:00
11:53 PM,18.0,17.1,96,30.13,10.0,WSW,3.5,-,N/A,,Overcast,250,2012-12-11 06:53:00